Atlantic City, NJ

9:22 PM EST on December 17, 2017 (GMT -0500)
Atlantic City International

Weather History for KACY - March, 2013

Change the Weather History Date:

Wednesday, March 27, 2013

  Actual Average Record
Temperature  
Mean Temperature 42 °F 46 °F  
Max Temperature 52 °F 55 °F 83 °F (2007)
Min Temperature 32 °F 36 °F 12 °F (2014)
Degree Days  
Heating Degree Days 23 20  
Month to date heating degree days 720 631  
Since 1 July heating degree days 4138 4222  
Cooling Degree Days 0 0  
Month to date cooling degree days 0 0  
Year to date cooling degree days 0 0  
Moisture  
Dew Point 27 °F    
Average Humidity 57    
Maximum Humidity 82    
Minimum Humidity 32    
Precipitation  
Precipitation 0.00 in 0.14 in 1.46 in (1932)
Month to date precipitation 4.41 3.65  
Year to date precipitation 11.87 9.74  
Snow  
Snow 0.00 in 0.10 in 0.20 in (1904)
Month to date snowfall 3.1 1.1  
Since 1 July snowfall 14.5 16.2  
Snow Depth 0.00 in    
Sea Level Pressure  
Sea Level Pressure 29.96 in    
Wind  
Wind Speed 12 mph (WNW)    
Max Wind Speed 24 mph    
Max Gust Speed 35 mph    
Visibility 10 miles    
Events      
T = Trace of Precipitation, MM = Missing Value Source: NWS Daily Summary

Daily Weather History Graph

Daily Weather History Graph

Search for Another Location

Airport or City:

Trip Planner

Search our weather history database for the weather conditions in past years. The results will help you decide how hot, cold, wet, or windy it might be!

Date:

Astronomy

Mar. 27, 2013 Rise Set
Actual Time 6:50 AM EDT 7:17 PM EDT
Civil Twilight 6:23 AM EDT 7:44 PM EDT
Nautical Twilight 5:51 AM EDT 8:16 PM EDT
Astronomical Twilight 5:19 AM EDT 8:48 PM EDT
Moon 7:58 PM EDT (3/27) 6:39 AM EDT (3/27)
Length of Visible Light 13h 21m
Length of Day
12h 27m
Full, 100% of the Moon is Illuminated
Mar 27
Full
Apr 3
Last Quarter
Apr 10
New
Apr 18
First Quarter
Apr 25
Full

Hourly Weather History & Observations

Time (EDT) Temp. Windchill Dew Point Humidity Pressure Visibility Wind Dir Wind Speed Gust Speed Precip Events Conditions
12:54 AM 41.0 °F 34.7 °F 32.0 °F 70% 29.91 in 10.0 mi WNW 10.4 mph - N/A   Mostly Cloudy
1:54 AM 39.0 °F 32.8 °F 30.0 °F 70% 29.92 in 10.0 mi WNW 9.2 mph - N/A   Scattered Clouds
2:54 AM 37.9 °F 31.5 °F 28.9 °F 70% 29.91 in 10.0 mi West 9.2 mph - N/A   Clear
3:54 AM 37.0 °F 30.4 °F 30.0 °F 76% 29.91 in 10.0 mi WNW 9.2 mph - N/A   Clear
4:54 AM 35.1 °F 28.6 °F 28.9 °F 78% 29.93 in 10.0 mi WNW 8.1 mph - N/A   Clear
5:54 AM 34.0 °F 27.2 °F 28.9 °F 82% 29.94 in 10.0 mi West 8.1 mph - N/A   Clear
6:54 AM 32.0 °F 24.8 °F 27.0 °F 82% 29.95 in 10.0 mi WNW 8.1 mph - N/A   Clear
7:54 AM 37.9 °F 31.5 °F 30.0 °F 73% 29.97 in 10.0 mi WNW 9.2 mph - N/A   Overcast
8:54 AM 42.1 °F 35.7 °F 30.0 °F 62% 29.99 in 10.0 mi WNW 11.5 mph - N/A   Partly Cloudy
9:54 AM 45.0 °F 37.6 °F 30.0 °F 56% 29.99 in 10.0 mi WNW 17.3 mph 24.2 mph N/A   Partly Cloudy
10:54 AM 46.9 °F - 28.0 °F 48% 29.99 in 10.0 mi WNW 15.0 mph - N/A   Mostly Cloudy
11:54 AM 48.9 °F - 28.0 °F 44% 29.97 in 10.0 mi WNW 10.4 mph 21.9 mph N/A   Scattered Clouds
12:54 PM 48.0 °F - 24.1 °F 39% 29.96 in 10.0 mi West 12.7 mph - N/A   Mostly Cloudy
1:54 PM 50.0 °F - 25.0 °F 38% 29.95 in 10.0 mi WNW 15.0 mph 26.5 mph N/A   Overcast
2:54 PM 50.0 °F - 21.9 °F 33% 29.94 in 10.0 mi West 17.3 mph 25.3 mph N/A   Mostly Cloudy
3:54 PM 50.0 °F - 21.9 °F 33% 29.93 in 10.0 mi NW 18.4 mph 23.0 mph N/A   Scattered Clouds
4:54 PM 50.0 °F - 21.9 °F 33% 29.93 in 10.0 mi NW 18.4 mph 34.5 mph N/A   Scattered Clouds
5:54 PM 48.0 °F - 23.0 °F 37% 29.95 in 10.0 mi WNW 21.9 mph 27.6 mph N/A   Mostly Cloudy
6:54 PM 46.9 °F - 23.0 °F 39% 29.96 in 10.0 mi WNW 15.0 mph 20.7 mph N/A   Clear
7:54 PM 44.1 °F 38.6 °F 25.0 °F 47% 29.99 in 10.0 mi NW 10.4 mph - N/A   Mostly Cloudy
8:54 PM 44.1 °F 39.0 °F 27.0 °F 51% 30.01 in 10.0 mi WNW 9.2 mph - N/A   Mostly Cloudy
9:54 PM 44.1 °F 38.6 °F 26.1 °F 49% 30.03 in 10.0 mi WNW 10.4 mph - N/A   Overcast
10:54 PM 42.1 °F - 26.1 °F 53% 30.03 in 10.0 mi North - - N/A   Clear
11:54 PM 39.9 °F - 27.0 °F 60% 30.03 in 10.0 mi North - - N/A   Clear